DHK054 EGNX-EBBR

Flight info

Callsign DHK054
Flight time 0h 51m
Altitude 37000
Route SAPCO UY53 DTY UM605 BENSU Q70 VABIK/N0437F230 Q70 KOK
Aircraft B77L/H-SDE1E2E3FGHIJ2J3J4J5M1RWXY/LB1D1

Departure

Time 2026-05-05 10:16
Airport East Midlands Airport (EGNX)

Arrival

Time 2026-05-05 11:08
Airport Brussels Airport (EBBR)
Time Latitude Longitude Altitude Speed Heading
2026-05-05 09:40 52.82751 -1.34867 315 ft 0 kts 179°
2026-05-05 10:06 52.82756 -1.34867 315 ft 4 kts 202°
2026-05-05 10:06 52.82771 -1.34856 315 ft 2 kts 188°
2026-05-05 10:06 52.82782 -1.34855 315 ft 0 kts 175°
2026-05-05 10:07 52.82795 -1.34859 316 ft 2 kts 158°
2026-05-05 10:07 52.82807 -1.34872 316 ft 2 kts 131°
2026-05-05 10:07 52.82815 -1.34893 315 ft 2 kts 105°
2026-05-05 10:07 52.82817 -1.34909 315 ft 0 kts 89°
2026-05-05 10:08 52.82817 -1.34915 315 ft 0 kts 88°
2026-05-05 10:12 52.82817 -1.34907 315 ft 2 kts 88°
2026-05-05 10:12 52.82818 -1.34877 316 ft 2 kts 88°
2026-05-05 10:12 52.82818 -1.34849 316 ft 2 kts 88°
2026-05-05 10:12 52.82819 -1.34820 317 ft 3 kts 88°
2026-05-05 10:13 52.82822 -1.34732 317 ft 8 kts 89°
2026-05-05 10:13 52.82825 -1.34630 316 ft 9 kts 86°
2026-05-05 10:13 52.82830 -1.34500 314 ft 11 kts 86°
2026-05-05 10:13 52.82874 -1.34432 314 ft 8 kts 355°
2026-05-05 10:14 52.82902 -1.34492 315 ft 7 kts 280°
2026-05-05 10:14 52.82907 -1.34561 316 ft 5 kts 272°
2026-05-05 10:14 52.82912 -1.34618 317 ft 3 kts 294°
2026-05-05 10:14 52.82933 -1.34647 318 ft 5 kts 339°
2026-05-05 10:15 52.82984 -1.34665 320 ft 8 kts 354°
2026-05-05 10:15 52.83040 -1.34669 320 ft 5 kts
2026-05-05 10:15 52.83067 -1.34607 319 ft 8 kts 85°
2026-05-05 10:15 52.83075 -1.34357 318 ft 52 kts 88°
2026-05-05 10:16 52.83093 -1.33224 310 ft 143 kts 90°
2026-05-05 10:16 52.83131 -1.31265 744 ft 181 kts 85°
2026-05-05 10:16 52.83126 -1.29354 1953 ft 172 kts 94°
2026-05-05 10:16 52.82965 -1.27317 2593 ft 189 kts 94°
2026-05-05 10:17 52.82813 -1.25077 3233 ft 206 kts 94°
2026-05-05 10:17 52.82397 -1.22725 3904 ft 227 kts 118°
2026-05-05 10:17 52.81372 -1.20664 4609 ft 246 kts 136°
2026-05-05 10:17 52.80079 -1.18666 5394 ft 263 kts 135°
2026-05-05 10:18 52.78707 -1.16595 6288 ft 275 kts 147°
2026-05-05 10:18 52.76951 -1.15448 7273 ft 281 kts 173°
2026-05-05 10:18 52.75014 -1.15681 8250 ft 285 kts 199°
2026-05-05 10:18 52.73209 -1.16997 9205 ft 289 kts 202°
2026-05-05 10:19 52.71233 -1.17576 10189 ft 294 kts 180°
2026-05-05 10:19 52.69148 -1.17413 10895 ft 309 kts 177°
2026-05-05 10:19 52.66946 -1.17159 11514 ft 327 kts 177°
2026-05-05 10:19 52.64635 -1.16885 12153 ft 344 kts 177°
2026-05-05 10:20 52.62177 -1.16594 12810 ft 361 kts 177°
2026-05-05 10:20 52.59652 -1.16294 13463 ft 376 kts 177°
2026-05-05 10:20 52.56983 -1.15978 14076 ft 394 kts 177°
2026-05-05 10:20 52.54198 -1.15648 14933 ft 403 kts 177°
2026-05-05 10:21 52.51438 -1.15320 16071 ft 404 kts 177°
2026-05-05 10:21 52.48629 -1.14986 17185 ft 406 kts 177°
2026-05-05 10:21 52.45833 -1.14655 18218 ft 409 kts 177°
2026-05-05 10:21 52.42966 -1.14316 19187 ft 414 kts 177°
2026-05-05 10:22 52.40104 -1.13978 20106 ft 419 kts 177°
2026-05-05 10:22 52.37174 -1.13632 20993 ft 424 kts 177°
2026-05-05 10:22 52.34226 -1.13285 21854 ft 429 kts 177°
2026-05-05 10:22 52.31252 -1.12934 22705 ft 433 kts 177°
2026-05-05 10:23 52.28255 -1.12582 23493 ft 438 kts 176°
2026-05-05 10:23 52.25195 -1.12222 24282 ft 443 kts 176°
2026-05-05 10:23 52.22092 -1.11858 25088 ft 447 kts 176°
2026-05-05 10:23 52.18974 -1.11484 25866 ft 451 kts 175°
2026-05-05 10:24 52.15850 -1.10689 26588 ft 457 kts 170°
2026-05-05 10:24 52.12740 -1.09676 27321 ft 462 kts 169°
2026-05-05 10:24 52.09597 -1.08641 28073 ft 466 kts 170°
2026-05-05 10:24 52.06400 -1.07590 28813 ft 471 kts 170°
2026-05-05 10:25 52.03200 -1.06541 29597 ft 474 kts 170°
2026-05-05 10:25 52.00002 -1.05495 30657 ft 471 kts 170°
2026-05-05 10:25 51.96805 -1.04451 31756 ft 464 kts 170°
2026-05-05 10:25 51.93672 -1.03431 32599 ft 461 kts 169°
2026-05-05 10:26 51.90567 -1.02423 33239 ft 461 kts 169°
2026-05-05 10:26 51.87401 -1.01396 33833 ft 462 kts 169°
2026-05-05 10:26 51.84255 -1.00377 34459 ft 462 kts 169°
2026-05-05 10:26 51.81125 -0.99366 35006 ft 461 kts 169°
2026-05-05 10:27 51.78019 -0.98363 35384 ft 461 kts 169°
2026-05-05 10:27 51.74871 -0.97348 35715 ft 463 kts 169°
2026-05-05 10:27 51.71700 -0.96327 36025 ft 464 kts 169°
2026-05-05 10:27 51.68560 -0.95309 36389 ft 465 kts 167°
2026-05-05 10:28 51.65472 -0.93815 36818 ft 467 kts 159°
2026-05-05 10:28 51.62526 -0.91598 36965 ft 474 kts 150°
2026-05-05 10:28 51.59798 -0.88657 37562 ft 477 kts 142°
2026-05-05 10:28 51.57385 -0.85057 38127 ft 471 kts 133°
2026-05-05 10:29 51.55358 -0.81010 38517 ft 470 kts 125°
2026-05-05 10:29 51.53696 -0.76513 38712 ft 474 kts 116°
2026-05-05 10:29 51.52450 -0.71607 38879 ft 478 kts 108°
2026-05-05 10:29 51.51660 -0.66402 38961 ft 481 kts 100°
2026-05-05 10:30 51.50680 -0.55845 38956 ft 479 kts 98°
2026-05-05 10:30 51.49725 -0.45327 38953 ft 478 kts 98°
2026-05-05 10:31 51.48756 -0.34771 38950 ft 478 kts 99°
2026-05-05 10:31 51.47784 -0.24279 38960 ft 478 kts 99°
2026-05-05 10:32 51.46802 -0.13785 38950 ft 478 kts 99°
2026-05-05 10:32 51.45808 -0.03279 38954 ft 478 kts 99°
2026-05-05 10:33 51.44805 0.07231 38951 ft 479 kts 99°
2026-05-05 10:33 51.43798 0.17672 38950 ft 479 kts 99°
2026-05-05 10:34 51.42778 0.28159 38951 ft 478 kts 99°
2026-05-05 10:34 51.41742 0.38697 38951 ft 479 kts 99°
2026-05-05 10:35 51.40700 0.49194 38951 ft 478 kts 99°
2026-05-05 10:35 51.39666 0.59535 38845 ft 471 kts 99°
2026-05-05 10:36 51.38625 0.69831 38476 ft 470 kts 101°
2026-05-05 10:36 51.38100 0.74985 37908 ft 471 kts 101°
2026-05-05 10:36 51.37573 0.80145 37319 ft 473 kts 101°
2026-05-05 10:37 51.37042 0.85311 36639 ft 476 kts 101°
2026-05-05 10:37 51.36503 0.90536 36096 ft 480 kts 101°
2026-05-05 10:37 51.35961 0.95764 35565 ft 486 kts 101°
2026-05-05 10:37 51.35400 1.01147 34767 ft 494 kts 102°
2026-05-05 10:38 51.34835 1.06536 33690 ft 499 kts 101°
2026-05-05 10:38 51.34265 1.11967 33144 ft 491 kts 102°
2026-05-05 10:38 51.33712 1.17229 32922 ft 474 kts 102°
2026-05-05 10:38 51.33177 1.22293 32665 ft 458 kts 102°
2026-05-05 10:39 51.32647 1.27285 31790 ft 457 kts 102°
2026-05-05 10:39 51.32116 1.32246 30655 ft 461 kts 102°
2026-05-05 10:39 51.31576 1.37265 29826 ft 461 kts 101°
2026-05-05 10:39 51.31032 1.42318 29374 ft 454 kts 102°
2026-05-05 10:40 51.30502 1.47217 28895 ft 448 kts 101°
2026-05-05 10:40 51.29978 1.52038 28330 ft 445 kts 101°
2026-05-05 10:40 51.29453 1.56854 27755 ft 441 kts 101°
2026-05-05 10:40 51.28926 1.61658 27157 ft 438 kts 101°
2026-05-05 10:41 51.28402 1.66424 26807 ft 428 kts 102°
2026-05-05 10:41 51.27900 1.70978 26633 ft 410 kts 102°
2026-05-05 10:41 51.27413 1.75379 26094 ft 398 kts 102°
2026-05-05 10:41 51.26940 1.79626 25239 ft 395 kts 102°
2026-05-05 10:42 51.25980 1.88200 23943 ft 391 kts 102°
2026-05-05 10:42 51.25502 1.92448 23468 ft 388 kts 102°
2026-05-05 10:42 51.24943 1.96618 22990 ft 383 kts 108°
2026-05-05 10:43 51.24095 2.00603 22523 ft 379 kts 110°
2026-05-05 10:43 51.23224 2.04513 22023 ft 377 kts 110°
2026-05-05 10:43 51.22343 2.08450 21546 ft 375 kts 110°
2026-05-05 10:43 51.21484 2.12283 21088 ft 371 kts 110°
2026-05-05 10:44 51.20614 2.16161 20598 ft 369 kts 110°
2026-05-05 10:44 51.19753 2.19987 20124 ft 367 kts 110°
2026-05-05 10:44 51.18895 2.23798 19667 ft 365 kts 110°
2026-05-05 10:44 51.18042 2.27563 19186 ft 362 kts 111°
2026-05-05 10:45 51.17155 2.31251 18940 ft 354 kts 111°
2026-05-05 10:45 51.16261 2.34915 18922 ft 360 kts 111°
2026-05-05 10:45 51.15347 2.38650 18934 ft 360 kts 111°
2026-05-05 10:45 51.14442 2.42342 18925 ft 360 kts 111°
2026-05-05 10:46 51.13531 2.46052 18928 ft 360 kts 111°
2026-05-05 10:46 51.12620 2.49754 18926 ft 361 kts 111°
2026-05-05 10:46 51.11695 2.53512 18913 ft 360 kts 111°
2026-05-05 10:46 51.10788 2.57190 18919 ft 360 kts 111°
2026-05-05 10:47 51.09867 2.60914 18922 ft 360 kts 111°
2026-05-05 10:47 51.08947 2.64629 18923 ft 360 kts 111°
2026-05-05 10:47 51.08013 2.68396 18922 ft 361 kts 112°
2026-05-05 10:47 51.07088 2.72121 18923 ft 360 kts 112°
2026-05-05 10:48 51.06177 2.75781 18925 ft 360 kts 112°
2026-05-05 10:48 51.05243 2.79528 18920 ft 359 kts 112°
2026-05-05 10:48 51.04322 2.83217 18920 ft 358 kts 112°
2026-05-05 10:48 51.03388 2.86951 18917 ft 360 kts 112°
2026-05-05 10:49 51.02463 2.90646 18922 ft 361 kts 112°
2026-05-05 10:49 51.01535 2.94346 18916 ft 359 kts 112°
2026-05-05 10:49 51.00606 2.98042 18913 ft 360 kts 112°
2026-05-05 10:49 50.99674 3.01746 18743 ft 353 kts 112°
2026-05-05 10:50 50.98764 3.05353 18170 ft 354 kts 112°
2026-05-05 10:50 50.97845 3.08989 17608 ft 355 kts 112°
2026-05-05 10:50 50.96934 3.12590 17175 ft 352 kts 111°
2026-05-05 10:50 50.96011 3.16231 16761 ft 348 kts 111°
2026-05-05 10:51 50.95106 3.19800 16304 ft 346 kts 111°
2026-05-05 10:51 50.94219 3.23287 15866 ft 344 kts 111°
2026-05-05 10:51 50.93323 3.26806 15402 ft 343 kts 111°
2026-05-05 10:51 50.92433 3.30295 14925 ft 341 kts 111°
2026-05-05 10:52 50.91535 3.33812 14462 ft 340 kts 111°
2026-05-05 10:52 50.90647 3.37284 14036 ft 338 kts 110°
2026-05-05 10:52 50.89767 3.40715 13787 ft 329 kts 110°
2026-05-05 10:52 50.88932 3.43968 13655 ft 310 kts 110°
2026-05-05 10:53 50.88143 3.47032 13405 ft 296 kts 110°
2026-05-05 10:53 50.87366 3.50052 12851 ft 294 kts 110°
2026-05-05 10:53 50.86586 3.53081 12218 ft 294 kts 110°
2026-05-05 10:53 50.85815 3.56069 11644 ft 292 kts 110°
2026-05-05 10:54 50.85050 3.59031 11101 ft 290 kts 110°
2026-05-05 10:54 50.84281 3.62002 10536 ft 288 kts 110°
2026-05-05 10:54 50.83523 3.64931 9967 ft 287 kts 109°
2026-05-05 10:54 50.82771 3.67833 9586 ft 284 kts 110°
2026-05-05 10:55 50.82035 3.70664 9557 ft 270 kts 110°
2026-05-05 10:55 50.81332 3.73362 9552 ft 256 kts 110°
2026-05-05 10:55 50.80667 3.75912 9484 ft 245 kts 110°
2026-05-05 10:55 50.80019 3.78397 9226 ft 242 kts 110°
2026-05-05 10:56 50.79377 3.80862 8947 ft 240 kts 110°
2026-05-05 10:56 50.78740 3.83298 8754 ft 234 kts 110°
2026-05-05 10:56 50.78125 3.85656 8469 ft 234 kts 110°
2026-05-05 10:56 50.77507 3.88017 8179 ft 233 kts 110°
2026-05-05 10:57 50.76889 3.90380 7902 ft 231 kts 110°
2026-05-05 10:57 50.76275 3.92725 7620 ft 230 kts 110°
2026-05-05 10:57 50.75673 3.95018 7353 ft 228 kts 110°
2026-05-05 10:57 50.75060 3.97354 7080 ft 227 kts 110°
2026-05-05 10:58 50.74457 3.99648 6866 ft 221 kts 110°
2026-05-05 10:58 50.73883 4.01825 6861 ft 206 kts 110°
2026-05-05 10:58 50.73345 4.03866 6805 ft 199 kts 110°
2026-05-05 10:58 50.72821 4.05856 6641 ft 195 kts 110°
2026-05-05 10:59 50.72306 4.07806 6424 ft 192 kts 110°
2026-05-05 10:59 50.71796 4.09739 6198 ft 190 kts 110°
2026-05-05 10:59 50.71289 4.11659 5973 ft 189 kts 110°
2026-05-05 10:59 50.70779 4.13593 5742 ft 189 kts 110°
2026-05-05 11:00 50.70271 4.15512 5515 ft 188 kts 110°
2026-05-05 11:00 50.69774 4.17394 5297 ft 188 kts 110°
2026-05-05 11:00 50.69266 4.19307 5077 ft 187 kts 110°
2026-05-05 11:00 50.68774 4.21180 4852 ft 186 kts 106°
2026-05-05 11:01 50.68541 4.23146 4638 ft 183 kts 87°
2026-05-05 11:01 50.68736 4.25118 4431 ft 180 kts 74°
2026-05-05 11:01 50.69053 4.27010 4225 ft 180 kts 73°
2026-05-05 11:01 50.69635 4.28691 4000 ft 175 kts 53°
2026-05-05 11:02 50.70269 4.30351 3723 ft 182 kts 62°
2026-05-05 11:02 50.70815 4.32162 3456 ft 180 kts 63°
2026-05-05 11:02 50.71334 4.33910 3342 ft 171 kts 64°
2026-05-05 11:02 50.71843 4.35600 3023 ft 172 kts 63°
2026-05-05 11:03 50.72367 4.37347 2680 ft 173 kts 64°
2026-05-05 11:03 50.72803 4.39031 2501 ft 161 kts 68°
2026-05-05 11:03 50.73145 4.40731 2059 ft 164 kts 70°
2026-05-05 11:03 50.73664 4.42247 1818 ft 149 kts 44°
2026-05-05 11:04 50.74425 4.43334 1932 ft 150 kts 32°
2026-05-05 11:04 50.75411 4.43816 1984 ft 151 kts 12°
2026-05-05 11:04 50.76438 4.44164 1977 ft 150 kts 16°
2026-05-05 11:04 50.77453 4.44581 1973 ft 150 kts 16°
2026-05-05 11:05 50.78465 4.44993 1979 ft 151 kts 16°
2026-05-05 11:05 50.79491 4.45407 1980 ft 150 kts 16°
2026-05-05 11:05 50.80503 4.45818 1889 ft 154 kts 16°
2026-05-05 11:05 50.81497 4.46220 1681 ft 140 kts 16°
2026-05-05 11:06 50.82424 4.46597 1501 ft 135 kts 16°
2026-05-05 11:06 50.83338 4.46968 1318 ft 134 kts 15°
2026-05-05 11:06 50.84243 4.47335 1131 ft 133 kts 15°
2026-05-05 11:06 50.85109 4.47689 932 ft 124 kts 15°
2026-05-05 11:07 50.85970 4.48025 779 ft 130 kts 16°
2026-05-05 11:07 50.86868 4.48387 600 ft 134 kts 16°
2026-05-05 11:07 50.87803 4.48774 411 ft 137 kts 14°
2026-05-05 11:07 50.88720 4.49151 213 ft 133 kts 15°
2026-05-05 11:08 50.89540 4.49485 157 ft 102 kts 14°
2026-05-05 11:08 50.90064 4.49689 145 ft 49 kts 12°
2026-05-05 11:08 50.90282 4.49678 141 ft 26 kts 344°
2026-05-05 11:08 50.90419 4.49606 138 ft 15 kts 326°
2026-05-05 11:09 50.90503 4.49515 136 ft 13 kts 345°
2026-05-05 11:09 50.90600 4.49528 132 ft 15 kts 15°
2026-05-05 11:09 50.90711 4.49578 126 ft 18 kts 15°
2026-05-05 11:09 50.90823 4.49623 120 ft 11 kts
2026-05-05 11:10 50.90860 4.49558 119 ft 10 kts 261°
2026-05-05 11:10 50.90836 4.49456 120 ft 10 kts 246°
2026-05-05 11:10 50.90804 4.49346 122 ft 10 kts 245°
2026-05-05 11:10 50.90775 4.49247 124 ft 10 kts 245°
2026-05-05 11:11 50.90741 4.49131 123 ft 12 kts 245°
2026-05-05 11:11 50.90704 4.49001 122 ft 13 kts 244°
2026-05-05 11:11 50.90664 4.48866 121 ft 14 kts 244°
2026-05-05 11:11 50.90621 4.48722 120 ft 15 kts 245°
2026-05-05 11:12 50.90575 4.48559 120 ft 15 kts 245°
2026-05-05 11:12 50.90526 4.48388 119 ft 16 kts 245°
2026-05-05 11:12 50.90480 4.48224 119 ft 16 kts 245°
2026-05-05 11:12 50.90431 4.48056 119 ft 16 kts 244°
2026-05-05 11:13 50.90379 4.47876 118 ft 18 kts 246°
2026-05-05 11:13 50.90326 4.47692 118 ft 20 kts 245°
2026-05-05 11:13 50.90264 4.47480 118 ft 21 kts 244°
2026-05-05 11:13 50.90203 4.47276 119 ft 19 kts 244°
2026-05-05 11:14 50.90169 4.47155 120 ft 6 kts 260°
2026-05-05 11:14 50.90190 4.47043 120 ft 14 kts 293°
2026-05-05 11:14 50.90241 4.46882 119 ft 17 kts 296°
2026-05-05 11:14 50.90296 4.46711 120 ft 16 kts 297°
2026-05-05 11:15 50.90350 4.46546 120 ft 16 kts 295°
2026-05-05 11:15 50.90382 4.46420 119 ft 11 kts 319°
2026-05-05 11:15 50.90440 4.46372 119 ft 6 kts 334°
2026-05-05 11:15 50.90459 4.46359 120 ft 0 kts 335°